Flag for U.S.A. Weather past 2 weeks in Pomona, California, U.S.A.

Now
82 °F

Sunny.


Feels Like: 80 °F
Forecast: 53 / 82 °F
Wind: 10 mph from West

Location: Chino Airport

Current Time: Apr 18, 2015 at 12:36:43 PM

Latest Report: Apr 18, 2015 at 11:53 AM


Visibility: 10 mi

Pressure: 29.99 "Hg

Humidity: 14%

Dew point: 29 °F

Location of PomonaLocation

Historic Weather in Pomona — Graph

°F

Pomona temperature yesterday

Maximum temperature yesterday: 87 °F (at 1:53 PM)
Minimum temperature yesterday: 48 °F (at 1:53 AM)
Average temperature yesterday: 67 °F

Past Weeks' High & Low Weather Summary

 TemperatureHumidityPressure
High87 °F (Apr 17, 1:53 PM)93% (Apr 8, 3:53 AM)30.11 "Hg (Apr 8, 3:53 AM)
Low45 °F (Apr 7, 5:53 AM)5% (Apr 3, 3:53 PM)29.82 "Hg (Apr 5, 4:53 PM)
Average63 °F49%29.97 "Hg
* Reported Apr 3 10:53 AM — Apr 18 10:53 AM, Pomona, Weather by CustomWeather, © 2015

Note: Actual official high and low records may vary slightly from our data, if they occured in-between our weather recording intervals... More about our weather records

Advertising

Pomona weather history for previous 24 hours

 ConditionsComfort  
Time TempWeatherWind HumidityBarometerVisibility
10:53 AM
Sat, Apr 18
77 °FSunny.No wind16%30.01 "Hg10 mi
9:53 AM70 °FSunny.No wind25%30.01 "Hg10 mi
8:53 AM63 °FSunny.No wind33%30.02 "Hg10 mi
7:53 AM58 °FSunny.No wind43%30.03 "Hg10 mi
6:53 AM50 °FClear.No wind59%30.02 "Hg10 mi
5:53 AM50 °FClear.No wind61%30.01 "Hg6 mi
4:53 AM51 °FClear.No wind59%30.00 "Hg7 mi
3:53 AM52 °FClear.3 mph53%30.00 "Hg8 mi
2:53 AM51 °FClear.No wind61%30.01 "Hg6 mi
1:53 AM56 °FClear.No wind47%30.02 "Hg8 mi
12:53 AM56 °FClear.No wind47%30.03 "Hg6 mi
11:53 PM
Fri, Apr 17
58 °FClear.3 mph44%30.03 "Hg7 mi
10:53 PM62 °FClear.3 mph32%30.02 "Hg9 mi
9:53 PM64 °FClear.7 mph27%30.01 "Hg10 mi
8:53 PM65 °FClear.9 mph24%30.00 "Hg10 mi
7:53 PM69 °FSunny.8 mph21%29.98 "Hg10 mi
6:53 PM74 °FSunny.14 mph15%29.96 "Hg10 mi
5:53 PM78 °FSunny.17 mph15%29.95 "Hg10 mi
4:53 PM82 °FSunny.18 mph12%29.94 "Hg10 mi
3:53 PM85 °FSunny.17 mph10%29.94 "Hg10 mi
2:53 PM87 °FSunny.10 mph8%29.95 "Hg10 mi
1:53 PM87 °FSunny.5 mph9%29.98 "Hg10 mi
12:53 PM85 °FSunny.5 mph7%30.00 "Hg10 mi
Weather by CustomWeather, © 2015

See weather overviewHow to use our weather pages